Powered by GoogleTranslate

Occupational Safety and Health Administration OSHA

Alert: Due to routine maintenance on the OSHA website, some pages may be temporarily unavailable.
To report an emergency, file a complaint with OSHA or ask a safety and health question, call 1-800-321-6742 (OSHA).

Accident Search Results

Description, Abstract, KeywordSICNAICSDate RangeOfficeInsp Nr
Keyword: "Cardiovasc System"AllAllAllAllAll

By Date

Results 101 - 120 of 912
Result Page: 1 2 3 4 5 6 7 8 9 10 ...
  # Summary Nr Event Date Report ID Fat SIC Event Description
101 67589.015 07/11/2014 0626000 X Employee Spraying Pesticide Near A Bystander Goes Into Cardi
102 200362382 04/03/2014 0453730 X 1521 Worker Dies Of Cardiac Arrest, Respiratory Failure
103 202638003 03/24/2014 0551800 X 1794 Worker Cutting Down Trees Dies From Heart Failure
104 200390300 03/05/2014 0150900 X 4953 Employee Suffers Heart Attack While Working And Dies
105 200362234 03/03/2014 0453710 X 7389 Employee Dies From Heart Attack
106 202637963 02/25/2014 0551800 X 4213 Employee Dies From Natural Causes
107 202546198 02/21/2014 0950641 X 4581 Employee Dies From Heart Attack
108 202459061 02/11/2014 0950647 X 1389 Worker Dies Of Undisclosed Medical Event
109 200926731 01/29/2014 0355118   2621 Employee Dies From Heart Attack
110 202602413 01/03/2014 0551701 X 9199 Employee Sustains Heart Attack While Salting Sidewalk
111 202034021 01/02/2014 0253610 X 9431 Maintenance Worker Dies Of Cardiovascular System Failure
112 202045928 12/30/2013 0155010 X 5411 Employee Is Found Dead Of Heart Attack
113 201498334 12/26/2013 0950625 X 7992 Employee Dies From Heart Attack And Drives Cart Into River
114 200042216 12/24/2013 0653510 X 3537 Employee Dies From Heart Attack And Is Found In Trailer
115 57229.015 12/16/2013 0112000 X Employee Suffers A Heart Attack And Dies
116 202570529 12/05/2013 0452110 X 2911 Employee Falls And Dies After Possible Heart Attack
117 202252573 12/05/2013 0953210 X 4731 Shipping Warehouse Supervisor Dies, Possibly Of Heart Attack
118 201045119 12/05/2013 0953220 X 5149 Shelf Stocker Dies From Cardiac Arrest
119 202658746 12/02/2013 0950643   7999 Heavy Equipment Mechanic Sustains Myocardial Infarction
120 200923027 11/25/2013 0355112 X 8999 Employee Dies From Cardiac Arrest

Thank You for Visiting Our Website

You are exiting the Department of Labor's Web server.

The Department of Labor does not endorse, takes no responsibility for, and exercises no control over the linked organization or its views, or contents, nor does it vouch for the accuracy or accessibility of the information contained on the destination server. The Department of Labor also cannot authorize the use of copyrighted materials contained in linked Web sites. Users must request such authorization from the sponsor of the linked Web site. Thank you for visiting our site. Please click the button below to continue.

Close